Palacios, TX

8:26 AM CST on December 03, 2016 (GMT -0600)
Palacios Municipal

Weather History for KPSX - September, 2011

Change the Weather History Date:

Friday, September 16, 2011

  Actual Average Record
Temperature  
Mean Temperature 81 °F -  
Max Temperature 91 °F 88 °F 97 °F (1953)
Min Temperature 73 °F 71 °F 57 °F (1979)
Cooling Degree Days 16    
Growing Degree Days 31 (Base 50)    
Moisture  
Dew Point 74 °F    
Average Humidity 79    
Maximum Humidity 100    
Minimum Humidity 55    
Precipitation  
Precipitation 0.37 in - - ()
Sea Level Pressure  
Sea Level Pressure 30.03 in    
Wind  
Wind Speed 11 mph (SE)    
Max Wind Speed 23 mph    
Max Gust Speed 36 mph    
Visibility 9 miles    
Events Fog , Rain    
Averages and records for this station are not official NWS values.
T = Trace of Precipitation, MM = Missing Value Source: NWS Daily Summary

Daily Weather History Graph

Daily Weather History Graph

Search for Another Location

Airport or City:

Trip Planner

Search our weather history database for the weather conditions in past years. The results will help you decide how hot, cold, wet, or windy it might be!

Date:

Astronomy

Sep. 16, 2011 Rise Set
Actual Time 7:10 AM CDT 7:29 PM CDT
Civil Twilight 6:46 AM CDT 7:52 PM CDT
Nautical Twilight 6:19 AM CDT 8:20 PM CDT
Astronomical Twilight 5:51 AM CDT 8:48 PM CDT
Moon 9:47 PM CDT (9/16) 10:50 AM CDT (9/16)
Length of Visible Light 13h 05m
Length of Day
12h 18m
Waning Gibbous, 84% of the Moon is Illuminated
Sep 16
Waning Gibbous
Sep 20
Last Quarter
Sep 27
New
Oct 3
First Quarter
Oct 11
Full

Hourly Weather History & Observations

Time (CDT) Temp. Heat Index Dew Point Humidity Pressure Visibility Wind Dir Wind Speed Gust Speed Precip Events Conditions
12:53 AM 81.0 °F 86.2 °F 73.9 °F 79% 30.02 in 10.0 mi ESE 15.0 mph - N/A   Clear
1:53 AM 81.0 °F 86.2 °F 73.9 °F 79% 30.02 in 10.0 mi ESE 12.7 mph - N/A   Clear
2:53 AM 81.0 °F 86.2 °F 73.9 °F 79% 30.01 in 10.0 mi ESE 12.7 mph - N/A   Clear
3:53 AM 80.1 °F 83.8 °F 72.0 °F 76% 30.01 in 10.0 mi SE 9.2 mph - N/A   Clear
4:53 AM 79.0 °F - 72.0 °F 79% 30.01 in 10.0 mi ESE 8.1 mph - N/A   Clear
5:53 AM 78.1 °F - 72.0 °F 81% 30.03 in 10.0 mi ENE 5.8 mph - N/A   Clear
6:53 AM 73.9 °F - 71.1 °F 91% 30.03 in 10.0 mi ENE 5.8 mph - N/A   Scattered Clouds
7:53 AM 75.9 °F - 73.9 °F 94% 30.05 in 9.0 mi NE 4.6 mph - N/A   Partly Cloudy
8:53 AM 81.0 °F 86.7 °F 75.0 °F 82% 30.06 in 10.0 mi NE 6.9 mph - N/A   Clear
9:53 AM 86.0 °F 92.2 °F 72.0 °F 63% 30.07 in 10.0 mi SE 15.0 mph - N/A   Scattered Clouds
10:53 AM 87.1 °F 92.8 °F 71.1 °F 59% 30.09 in 10.0 mi SSE 15.0 mph - N/A   Mostly Cloudy
11:53 AM 89.6 °F 96.2 °F 71.6 °F 55% 30.08 in 10.0 mi SSE 17.3 mph 24.2 mph N/A   Scattered Clouds
12:53 PM 88.0 °F 95.6 °F 73.0 °F 61% 30.07 in 10.0 mi SSE 17.3 mph - N/A   Mostly Cloudy
1:53 PM 87.1 °F 93.6 °F 72.0 °F 61% 30.07 in 10.0 mi SE 23.0 mph 35.7 mph N/A   Mostly Cloudy
2:53 PM 82.9 °F 90.8 °F 75.9 °F 79% 30.04 in 10.0 mi SE 8.1 mph - 0.01 in   Scattered Clouds
3:42 PM 78.8 °F - 75.2 °F 89% 30.04 in 1.5 mi South 19.6 mph 28.8 mph 0.16 in Rain Rain
3:48 PM 77.0 °F - 75.2 °F 94% 30.04 in 0.5 mi South 9.2 mph 26.5 mph 0.34 in Fog , Rain Heavy Rain
3:53 PM 75.9 °F - 75.9 °F 100% 30.03 in 0.8 mi South 6.9 mph 19.6 mph 0.36 in Rain Heavy Rain
3:57 PM 77.0 °F - 75.2 °F 94% 30.03 in 2.0 mi South 6.9 mph - 0.01 in Rain Rain
4:04 PM 78.8 °F - 75.2 °F 89% 30.02 in 6.0 mi South 8.1 mph - 0.01 in Rain Light Rain
4:53 PM 80.6 °F 87.1 °F 77.0 °F 89% 30.01 in 10.0 mi SSE 4.6 mph - N/A   Clear
5:53 PM 84.9 °F 92.1 °F 73.9 °F 69% 30.00 in 10.0 mi SE 12.7 mph - N/A   Partly Cloudy
6:53 PM 82.9 °F 88.8 °F 73.0 °F 72% 29.99 in 10.0 mi SE 11.5 mph - N/A   Scattered Clouds
7:53 PM 82.0 °F 87.4 °F 73.0 °F 74% 29.99 in 10.0 mi SE 11.5 mph - N/A   Clear
8:53 PM 81.0 °F 86.2 °F 73.9 °F 79% 30.00 in 10.0 mi SE 10.4 mph - N/A   Partly Cloudy
9:53 PM 81.0 °F 86.2 °F 73.9 °F 79% 30.02 in 10.0 mi ESE 8.1 mph - N/A   Unknown
10:53 PM 80.1 °F 84.5 °F 73.9 °F 81% 30.03 in 10.0 mi ESE 10.4 mph - N/A   Clear
11:53 PM 80.1 °F 84.5 °F 73.9 °F 81% 30.03 in 10.0 mi ESE 9.2 mph - N/A   Clear